FLOCK 4Y-31 (55075 NORAD) Tracking and Keplerian Element Data

This shows tracking and keplerian element data for the satellite.

Feedback or suggestion? Click here.




ElementValue
Catalog55075
NameFLOCK 4Y-31
Epoch Orbit1885
Epoch Day127.086155
Epoch Year2023
RAAN187.4441
Inclination97.4788
Eccentricity0.0016232
Argument of Perigee145.31
Mean Anonmoly214.9196
Mean Motion15.17701381
Decay Rate0.000122
L11 55075U 23001BU 23127.08615500 .00012200 00000+0 60600-3 0 9997
L22 55075 97.4788 187.4441 0016232 145.3100 214.9196 15.17701381 18852



Live tracking and technical data element details for FLOCK 4Y-31 (NORAD 55075). FLOCK 4Y-31 can be tracked NOW for your location showing map with azimuth and elevation plus other details from your city location.







IsCatalogInMostPopularTable: catalog: 55075, numindb: -1

Insert: records affected: 1


GetName: 55075 FLOCK 4Y-31

Hit Count: inserted at: Mon, 05 Jun 2023 20:21:51 GMT